Weather History for Creston, IA

Change the Weather History Date:

Tuesday, September 24, 2013

  Actual Average Record
Temperature  
Mean Temperature 63 °F -  
Max Temperature 69 °F 70 °F 87 °F (1958)
Min Temperature 57 °F 47 °F 29 °F (1965)
Degree Days  
Heating Degree Days 2    
Growing Degree Days 13 (Base 50)    
Moisture  
Dew Point 56 °F    
Average Humidity 80    
Maximum Humidity 94    
Minimum Humidity 64    
Precipitation  
Precipitation 0.00 in - - ()
Sea Level Pressure  
Sea Level Pressure 29.85 in    
Wind  
Wind Speed 10 mph (East)    
Max Wind Speed 15 mph    
Max Gust Speed 23 mph    
Visibility 10 miles    
Events      
Averages and records for this station are not official NWS values.
T = Trace of Precipitation, MM = Missing Value Source: NWS Daily Summary

Daily Weather History Graph

Daily Weather History Graph

Search for Another Location

Airport:

Trip Planner

Search our weather history database for the weather conditions in past years. The results will help you decide how hot, cold, wet, or windy it might be!

Date:

Astronomy

Sep. 24, 2013 Rise Set
Actual Time 7:07 AM CDT 7:10 PM CDT
Civil Twilight 6:39 AM CDT 7:38 PM CDT
Nautical Twilight 6:07 AM CDT 8:10 PM CDT
Astronomical Twilight 5:35 AM CDT 8:42 PM CDT
Moon 10:26 PM CDT (9/24) 12:24 PM CDT (9/24)
Length of Visible Light 12h 58m
Length of Day
12h 03m
Waning Gibbous, 73% of the Moon is Illuminated
Sep 24
Waning Gibbous
Sep 26
Last Quarter
Oct 4
New
Oct 11
First Quarter
Oct 18
Full

Hourly Weather History & Observations

Time (CDT) Temp. Dew Point Humidity Pressure Visibility Wind Dir Wind Speed Gust Speed Precip Events Conditions
12:15 AM 59.0 °F 50.0 °F 72% 29.85 in 10.0 mi SE 11.5 mph 17.3 mph N/A   Clear
12:35 AM 59.0 °F 50.0 °F 72% 29.84 in 10.0 mi SE 12.7 mph - N/A   Partly Cloudy
12:55 AM 59.0 °F 50.0 °F 72% 29.84 in 10.0 mi SE 15.0 mph 23.0 mph N/A   Partly Cloudy
1:15 AM 59.0 °F 50.0 °F 72% 29.83 in 10.0 mi SE 15.0 mph 20.7 mph N/A   Scattered Clouds
1:35 AM 59.0 °F 50.0 °F 72% 29.83 in 10.0 mi SE 13.8 mph 19.6 mph N/A   Mostly Cloudy
1:55 AM 59.0 °F 51.8 °F 77% 29.83 in 10.0 mi SE 12.7 mph - N/A   Overcast
2:35 AM 59.0 °F 51.8 °F 77% 29.82 in 10.0 mi SE 11.5 mph 17.3 mph N/A   Overcast
2:55 AM 59.0 °F 51.8 °F 77% 29.81 in 10.0 mi SE 11.5 mph - N/A   Mostly Cloudy
3:15 AM 60.8 °F 51.8 °F 72% 29.81 in 10.0 mi SE 12.7 mph 19.6 mph N/A   Mostly Cloudy
3:35 AM 59.0 °F 51.8 °F 77% 29.80 in 10.0 mi SE 11.5 mph 18.4 mph N/A   Overcast
3:55 AM 59.0 °F 51.8 °F 77% 29.80 in 10.0 mi SE 10.4 mph 17.3 mph N/A   Scattered Clouds
4:35 AM 59.0 °F 53.6 °F 82% 29.80 in - SE 11.5 mph - N/A   Mostly Cloudy
4:55 AM 60.8 °F 53.6 °F 77% 29.80 in 10.0 mi SE 11.5 mph - N/A   Scattered Clouds
5:15 AM 59.0 °F 53.6 °F 82% 29.80 in 10.0 mi SE 9.2 mph - N/A   Mostly Cloudy
5:35 AM 59.0 °F 53.6 °F 82% 29.80 in 10.0 mi SE 9.2 mph - N/A   Mostly Cloudy
5:55 AM 59.0 °F 53.6 °F 82% 29.80 in 10.0 mi SE 8.1 mph - N/A   Mostly Cloudy
6:15 AM 57.2 °F 53.6 °F 88% 29.81 in 10.0 mi ESE 6.9 mph - N/A   Mostly Cloudy
6:35 AM 57.2 °F 53.6 °F 88% 29.81 in 10.0 mi ESE 9.2 mph - N/A   Overcast
6:55 AM 57.2 °F 53.6 °F 88% 29.81 in 10.0 mi ESE 8.1 mph - N/A   Overcast
7:15 AM 57.2 °F 53.6 °F 88% 29.81 in 10.0 mi East 9.2 mph - N/A   Overcast
7:35 AM 57.2 °F 53.6 °F 88% 29.81 in 10.0 mi East 8.1 mph 15.0 mph N/A   Overcast
7:55 AM 57.2 °F 53.6 °F 88% 29.82 in 9.0 mi East 9.2 mph - N/A   Overcast
8:15 AM 57.2 °F 53.6 °F 88% 29.83 in 10.0 mi ESE 5.8 mph - N/A   Overcast
8:35 AM 57.2 °F 53.6 °F 88% 29.82 in 10.0 mi ESE 9.2 mph - N/A   Overcast
8:55 AM 59.0 °F 53.6 °F 82% 29.82 in 10.0 mi ESE 10.4 mph - N/A   Overcast
9:15 AM 59.0 °F 53.6 °F 82% 29.83 in 10.0 mi ESE 10.4 mph - N/A   Overcast
9:35 AM 60.8 °F 53.6 °F 77% 29.84 in 10.0 mi ESE 10.4 mph - N/A   Overcast
9:55 AM 60.8 °F 53.6 °F 77% 29.84 in 10.0 mi East 9.2 mph - N/A   Overcast
10:15 AM 60.8 °F 55.4 °F 82% 29.84 in 10.0 mi East 9.2 mph - N/A   Overcast
10:35 AM 62.6 °F 55.4 °F 77% 29.84 in 10.0 mi East 10.4 mph - N/A   Overcast
10:55 AM 62.6 °F 55.4 °F 77% 29.84 in 10.0 mi East 8.1 mph - N/A   Overcast
11:15 AM 64.4 °F 55.4 °F 73% 29.84 in 10.0 mi ESE 9.2 mph - N/A   Overcast
11:35 AM 64.4 °F 55.4 °F 73% 29.84 in 10.0 mi ESE 10.4 mph - N/A   Mostly Cloudy
11:55 AM 64.4 °F 55.4 °F 73% 29.84 in 10.0 mi ESE 8.1 mph - N/A   Mostly Cloudy
12:15 PM 66.2 °F 55.4 °F 68% 29.85 in 10.0 mi ENE 6.9 mph - N/A   Overcast
12:55 PM 66.2 °F 57.2 °F 73% 29.86 in 10.0 mi NNE 6.9 mph 12.7 mph N/A   Overcast
1:15 PM 66.2 °F 57.2 °F 73% 29.87 in 10.0 mi NNE 10.4 mph - N/A   Mostly Cloudy
1:35 PM 66.2 °F 57.2 °F 73% 29.87 in 10.0 mi NE 11.5 mph - N/A   Scattered Clouds
1:55 PM 68.0 °F 57.2 °F 68% 29.86 in 10.0 mi ENE 10.4 mph - N/A   Clear
2:15 PM 68.0 °F 57.2 °F 68% 29.87 in 10.0 mi NE 8.1 mph - N/A   Clear
2:35 PM 66.2 °F 57.2 °F 73% 29.86 in 10.0 mi NNE 12.7 mph - N/A   Clear
2:55 PM 66.2 °F 57.2 °F 73% 29.86 in 10.0 mi NNE 8.1 mph - N/A   Clear
3:15 PM 68.0 °F 57.2 °F 68% 29.86 in 10.0 mi NE 10.4 mph - N/A   Clear
3:35 PM 68.0 °F 57.2 °F 68% 29.86 in 10.0 mi NE 10.4 mph - N/A   Clear
3:55 PM 69.8 °F 57.2 °F 64% 29.85 in 10.0 mi East 10.4 mph - N/A   Partly Cloudy
4:15 PM 69.8 °F 59.0 °F 68% 29.86 in 10.0 mi ENE 12.7 mph - N/A   Clear
4:35 PM 69.8 °F 59.0 °F 68% 29.86 in 10.0 mi ENE 10.4 mph - N/A   Clear
4:55 PM 69.8 °F 59.0 °F 68% 29.86 in 10.0 mi ENE 10.4 mph - N/A   Clear
5:15 PM 69.8 °F 59.0 °F 68% 29.87 in 10.0 mi East 11.5 mph - N/A   Scattered Clouds
5:35 PM 69.8 °F 59.0 °F 68% 29.87 in 10.0 mi East 10.4 mph - N/A   Mostly Cloudy
5:55 PM 68.0 °F 59.0 °F 73% 29.88 in 10.0 mi ENE 10.4 mph - N/A   Scattered Clouds
6:15 PM 66.2 °F 59.0 °F 78% 29.88 in 10.0 mi ENE 6.9 mph - N/A   Clear
6:35 PM 64.4 °F 60.8 °F 88% 29.88 in 10.0 mi ENE 8.1 mph - N/A   Clear
6:55 PM 64.4 °F 60.8 °F 88% 29.88 in 10.0 mi NNE 4.6 mph - N/A   Partly Cloudy
7:15 PM 62.6 °F 59.0 °F 88% 29.88 in 10.0 mi NE 6.9 mph - N/A   Clear
7:35 PM 60.8 °F 59.0 °F 94% 29.88 in 10.0 mi ENE 5.8 mph - N/A   Clear
7:55 PM 60.8 °F 59.0 °F 94% 29.88 in 10.0 mi NNE 6.9 mph - N/A   Clear
8:15 PM 60.8 °F 59.0 °F 94% 29.89 in 10.0 mi NNE 8.1 mph - N/A   Clear
8:35 PM 62.6 °F 59.0 °F 88% 29.89 in 10.0 mi NNE 8.1 mph - N/A   Clear
8:55 PM 60.8 °F 59.0 °F 94% 29.89 in 10.0 mi NNE 8.1 mph - N/A   Clear
9:15 PM 60.8 °F 57.2 °F 88% 29.90 in 10.0 mi North 6.9 mph - N/A   Clear
9:35 PM 60.8 °F 57.2 °F 88% 29.90 in 10.0 mi North 6.9 mph - N/A   Partly Cloudy
9:55 PM 60.8 °F 57.2 °F 88% 29.90 in 10.0 mi North 6.9 mph - N/A   Clear
10:15 PM 60.8 °F 57.2 °F 88% 29.91 in 10.0 mi NE 5.8 mph - N/A   Clear
10:35 PM 60.8 °F 57.2 °F 88% 29.90 in 10.0 mi NNE 4.6 mph - N/A   Clear
10:55 PM 59.0 °F 57.2 °F 94% 29.90 in 10.0 mi NNE 4.6 mph - N/A   Clear
11:15 PM 60.8 °F 57.2 °F 88% 29.91 in 10.0 mi North 6.9 mph - N/A   Clear
11:35 PM 60.8 °F 57.2 °F 88% 29.90 in 10.0 mi NNE 6.9 mph - N/A   Clear
11:55 PM 59.0 °F 57.2 °F 94% 29.90 in 10.0 mi NE 6.9 mph - N/A   Clear